Location: Recife
(8.0585°S, 34.8848°W)
Time: 06:54:01
(UTC-03:00)

Vanguard 1 Rocket - Pass Details

Date: 21 April 2026
Orbit: 655 x 4212 km, 34.3° (Epoch: 13 May)

Event Time Altitude Azimuth Distance (km) Brightness Sun altitude
Rises 16:28:51 0° 244° (WSW) 4,899 12.0 10.2°
Reaches altitude 10° 16:31:28 10° 247° (WSW) 4,245 11.8 9.6°
Maximum altitude 16:43:51 64° 325° (NW) 3,083 10.5 6.6°
Drops below altitude 10° 17:06:49 10° 43° (NE) 7,242 11.7 1.1°
Sets 17:13:08 0° 46° (NE) 8,422 12.0 -0.5°
